SCP
4 3 2 1 2 3 4 3 3 3 3 2 2 2 2 2 2 2 3 3 2 1 1 2 2 2 3 2 2 1 1 1 1 1 1 1 1 1 1 1 1 1 1
4 3 2 1 2 2 3 3 3 3 3 2 2 2 2 2 2 2 2 2 2 1 1 2 2 2 3 2 2 1 1 1 1 1 1 1 1 1 1 1 1 1 1
3 2 1 1 1 2 2 2 3 3 3 2 2 2 2 2 2 2 2 2 2 2 2 2 2 2 2 2 2 1 2 2 2 2 2 1 1 1 1 1 1 1 1
2 1 1 1 1 1 2 2 3 3 3 3 2 2 2 2 2 2 2 2 2 2 2 2 2 2 2 2 2 1 2 2 2 2 2 1 1 1 1 1 1 1 1
1 1 1 1 1 1 2 2 3 3 3 3 3 3 3 3 2 2 2 2 2 2 2 2 2 2 2 2 2 1 1 2 2 2 2 2 1 1 1 1 1 1 1
1 1 1 1 1 2 2 3 3 4 4 3 3 4 4 3 3 2 2 2 2 2 2 2 3 3 3 2 2 1 1 1 1 1 1 1 2 2 2 1 1 1 1
2 1 1 2 2 2 3 4 4 5 4 4 4 4 4 3 3 3 2 2 2 1 2 2 3 3 3 3 2 2 1 1 1 1 1 1 2 2 2 2 2 2 2
2 2 1 2 3 3 4 5 5 5 5 5 5 4 3 3 3 2 2 2 2 2 2 3 3 4 3 2 2 2 2 1 1 1 1 1 2 3 3 3 2 2 2
2 2 2 3 4 5 5 6 5 5 4 4 4 4 3 2 2 2 2 2 2 2 2 3 3 3 3 2 2 2 2 2 1 1 1 2 2 3 3 3 2 2 1
2 2 3 5 6 7 7 6 5 4 4 4 3 3 3 2 2 2 2 2 2 2 2 2 3 3 2 2 2 2 2 2 1 2 2 2 2 3 3 3 2 2 2
3 4 5 7 8 7 6 5 4 4 3 3 3 3 3 2 2 2 2 2 2 2 2 2 2 2 2 2 2 2 2 2 2 2 2 2 3 3 3 3 2 2 2
4 5 6 7 6 5 4 4 4 3 3 3 3 3 3 3 3 2 2 2 2 3 3 3 3 2 2 2 2 2 1 2 2 1 2 2 2 3 3 3 3 2 2
4 5 5 5 4 4 3 3 3 3 3 3 3 3 3 3 3 3 3 3 3 3 4 4 3 2 2 2 2 1 1 2 2 1 1 1 2 2 2 2 2 2 1
4 4 4 4 4 4 4 3 4 4 4 4 3 3 3 3 3 3 3 3 4 4 4 4 4 3 2 2 2 2 2 2 2 2 1 1 1 1 1 1 1 1 1
3 3 3 4 4 4 4 4 5 5 5 4 3 3 3 3 3 4 3 3 4 4 5 5 4 3 3 2 2 2 2 2 2 2 2 1 1 1 1 1 1 1 1
3 3 4 4 5 5 5 6 6 6 5 4 4 4 4 4 5 5 4 3 3 4 5 5 5 4 3 2 1 1 1 2 2 2 2 1 1 1 0 0 0 1 1
3 3 4 5 7 8 9 9 9 7 6 5 4 4 4 5 5 5 4 4 4 4 5 5 4 3 2 1 1 1 1 1 2 2 2 1 1 1 0 0 0 0 0
4 4 5 8 10 12 12 11 10 8 6 5 5 5 5 5 5 5 4 4 4 4 4 3 3 2 2 1 0 0 1 1 2 2 1 1 1 1 1 1 1 1 1
5 5 7 10 13 13 11 10 9 8 6 5 4 5 5 5 5 5 5 5 4 4 3 2 2 2 1 1 0 0 1 1 2 2 2 1 1 1 0 1 1 1 1
6 6 8 10 10 10 8 8 7 7 6 5 4 5 6 7 7 6 6 5 5 4 3 3 2 2 1 1 0 0 1 1 2 2 1 1 0 0 0 1 1 1 0
6 6 7 8 7 7 6 6 6 7 7 6 6 7 8 8 8 7 7 6 6 5 5 4 3 2 1 1 0 0 0 1 1 1 1 0 0 0 0 0 0 0 0
5 6 7 7 6 6 6 6 6 7 9 8 8 9 9 8 8 8 7 7 6 6 5 5 4 2 1 1 0 0 0 0 0 0 0 0 0 0 0 0 0 0 0
6 6 7 7 6 6 6 6 6 8 10 11 11 9 7 7 7 8 7 7 6 5 5 5 4 4 2 1 0 0 0 0 0 0 0 0 0 0 0 0 0 0 0
6 6 7 6 6 6 6 7 8 10 12 13 11 7 5 5 7 7 7 6 5 5 5 5 5 5 4 2 1 0 0 0 0 0 0 0 0 0 0 0 0 0 0
7 7 7 7 6 6 6 8 10 11 12 12 9 6 5 6 7 7 6 5 4 4 4 4 4 4 3 2 1 0 0 0 0 0 0 0 0 0 0 0 0 0 0
9 9 8 7 7 6 7 10 11 11 11 10 8 6 6 7 7 6 4 3 2 2 2 2 2 2 2 1 1 0 0 0 0 0 0 0 0 0 0 0 0 0 0
Wind_Speed
10 10 10 9 9 8 8 8 8 7 6 4 4 4 4 3 3 3 3 4 5 4 4 4 3 4 4 4 5 5 6 5 4 5 5 6 8 7 6 6 6 6 6
10 10 10 9 10 9 9 9 9 8 7 5 4 3 3 3 3 2 2 4 4 4 4 4 4 4 4 5 5 5 4 4 3 3 4 4 5 5 6 5 5 5 4
12 12 11 10 10 10 10 8 8 7 7 6 4 3 3 3 3 3 2 3 4 4 4 4 4 4 5 4 5 5 5 5 3 4 4 4 3 2 3 4 3 3 3
11 11 11 11 10 10 9 9 8 7 7 7 6 6 4 4 3 2 2 3 4 4 4 4 5 5 5 5 6 5 5 6 5 4 5 6 4 4 3 3 2 2 2
11 11 10 10 9 9 9 8 8 7 7 7 6 6 5 4 3 2 2 3 3 4 4 4 4 4 4 5 5 4 5 4 5 4 3 4 5 6 5 3 2 2 2
10 9 9 8 8 8 8 8 7 7 7 7 6 6 5 4 3 3 2 3 2 2 3 4 3 4 4 4 4 4 4 4 4 4 3 4 4 4 4 4 4 2 1
9 9 9 9 9 9 8 8 8 7 7 6 6 5 5 4 4 4 2 3 2 2 2 3 3 3 3 3 3 3 3 3 4 4 4 4 4 3 3 4 4 3 2
9 9 9 9 9 9 9 8 8 7 6 6 5 4 4 3 3 2 3 2 2 2 2 2 2 2 3 3 2 2 2 2 3 3 3 3 3 3 3 3 3 3 3
9 9 9 9 9 9 8 8 7 6 6 5 5 4 3 3 2 1 2 1 2 2 2 2 2 2 2 2 2 1 1 1 1 1 2 3 2 3 3 3 3 3 3
9 9 9 9 8 8 8 7 7 6 6 5 4 3 3 2 1 1 0 1 2 2 2 2 2 2 2 2 2 1 1 1 1 1 1 2 2 1 2 2 2 2 3
9 9 9 9 8 8 8 8 7 7 5 5 4 3 3 2 2 1 1 1 1 2 2 2 2 2 2 2 2 2 2 2 2 1 1 1 2 1 1 1 1 1 1
8 9 10 9 9 9 8 8 7 6 6 5 5 4 4 3 3 2 1 1 1 1 2 2 2 2 2 2 2 2 3 3 3 3 3 2 2 2 2 1 1 0 0
8 9 9 8 8 8 7 7 7 6 6 6 6 5 4 4 3 3 2 2 2 2 2 2 3 3 3 3 3 4 4 5 4 4 4 4 3 3 3 2 2 1 1
8 8 8 8 7 7 7 7 7 7 6 6 6 5 4 4 3 3 3 3 3 3 3 3 4 4 4 5 5 5 5 6 6 6 5 5 5 5 4 3 3 3 2
8 8 8 8 8 8 7 7 7 7 6 6 6 5 5 4 4 4 4 4 3 4 4 4 5 5 5 5 5 5 6 6 7 7 7 9 10 11 8 6 5 4 3
9 8 8 8 8 8 8 8 8 7 7 6 6 6 5 5 5 5 4 4 4 5 5 5 6 6 6 8 8 6 7 7 7 7 7 8 9 10 11 12 11 9 5
8 9 8 8 8 8 8 8 8 8 7 7 6 6 6 5 5 5 5 5 5 5 5 6 7 8 8 8 8 8 6 7 7 7 6 6 7 7 7 8 8 10 11
8 9 8 8 8 8 8 8 8 8 8 7 6 6 5 6 5 5 5 5 5 5 6 6 7 7 8 7 6 5 7 8 8 7 7 7 7 7 6 7 9 9 9
7 8 8 8 8 8 8 8 8 8 8 7 6 6 6 6 6 6 6 5 5 6 6 6 6 6 7 6 5 3 6 7 8 8 8 7 8 8 6 6 8 8 8
7 7 8 8 8 8 8 8 8 7 7 7 6 6 6 6 6 6 6 5 5 6 6 6 6 6 6 6 5 4 4 6 6 6 8 11 9 8 7 6 7 7 7
8 8 8 8 7 7 8 8 7 6 6 6 7 6 6 7 7 6 6 6 5 6 6 6 6 6 6 6 6 6 3 4 5 6 6 7 8 8 8 6 7 5 3
8 9 8 7 7 7 7 7 7 6 6 7 7 7 7 6 7 7 6 6 6 6 6 5 5 5 5 5 6 7 6 5 5 5 6 7 7 7 7 6 6 3 2
8 8 8 8 7 7 7 7 7 7 7 7 7 7 7 6 7 7 7 6 5 4 4 4 4 5 5 6 6 7 7 6 5 6 8 6 4 4 6 6 3 2 2
7 7 8 8 7 7 6 6 7 7 8 8 7 7 7 7 6 4 4 4 4 4 4 4 4 4 4 4 4 5 6 6 6 6 6 5 3 3 4 3 2 3 4
6 7 7 7 7 7 6 7 8 8 8 8 7 7 6 6 6 5 4 2 3 2 2 3 4 4 4 4 4 2 3 3 4 4 4 4 3 3 3 3 3 3 3
7 7 7 7 7 7 7 6 7 7 8 7 6 5 5 5 5 6 5 10 8 8 7 6 3 5 6 7 6 6 6 4 1 2 3 3 2 2 3 3 3 3 3
Wind_Direction
193 189 192 197 196 199 199 201 207 201 205 213 218 221 230 246 253 253 256 261 266 261 259 276 270 265 262 263 254 251 246 245 251 262 259 245 236 234 236 237 243 237 234
191 189 195 198 201 199 201 204 208 205 207 210 223 229 243 246 243 265 274 271 268 266 254 258 268 263 260 260 260 251 262 253 232 250 264 256 231 219 226 223 226 243 242
195 192 196 201 200 201 202 203 205 206 208 209 209 209 213 237 236 241 253 266 270 268 275 274 271 275 269 263 262 255 254 259 250 236 253 268 259 249 210 213 226 233 249
200 197 196 199 199 197 196 198 198 202 202 203 214 219 230 239 244 250 260 259 258 266 263 263 266 266 269 272 264 252 255 254 254 236 240 261 292 280 254 213 205 218 245
199 199 199 196 195 191 189 187 190 195 197 204 208 220 233 240 244 242 252 263 260 265 268 269 270 269 271 275 278 277 260 255 257 254 248 248 249 249 262 265 265 241 243
196 196 193 186 184 183 182 181 180 188 192 198 208 219 229 237 253 254 263 259 260 267 276 275 276 274 275 272 266 266 257 262 263 262 255 251 252 251 248 256 262 264 267
189 185 182 175 173 174 175 177 177 181 185 194 205 212 221 230 241 257 259 275 286 288 294 293 286 282 278 274 268 254 268 269 261 255 253 252 257 267 263 260 269 277 272
175 175 172 169 166 167 170 175 176 178 180 183 190 206 213 227 238 248 279 287 298 309 322 306 301 306 302 293 283 275 268 268 266 261 256 254 252 257 252 256 261 262 257
166 164 163 161 160 163 166 169 168 168 169 173 175 188 202 224 252 257 257 286 305 321 343 341 340 333 329 322 304 322 322 317 293 273 249 254 250 254 257 256 251 252 262
156 156 155 153 152 152 152 154 154 155 159 166 173 162 174 185 205 245 18 9 5 0 353 354 354 350 352 343 332 351 34 23 11 343 319 286 279 263 261 263 266 256 255
146 144 141 140 143 145 147 148 146 147 150 151 148 146 145 145 146 129 87 55 27 16 4 4 4 4 10 14 24 28 47 46 36 7 352 345 337 324 290 265 256 253 242
137 138 137 141 146 146 145 147 145 146 151 148 143 139 133 129 122 105 75 60 48 34 28 21 20 21 29 32 41 41 47 51 48 31 20 14 21 9 340 356 8 55 204
140 139 139 143 145 146 145 145 145 144 146 142 138 135 132 125 113 99 81 65 56 43 40 44 39 36 36 41 51 52 53 52 49 42 36 30 27 20 25 22 33 39 76
146 145 143 142 141 144 144 144 141 140 139 137 135 131 124 117 112 103 94 82 74 65 54 53 52 51 52 56 60 60 59 56 51 46 44 39 39 35 37 47 45 48 72
154 151 147 143 145 145 143 142 137 134 134 136 132 128 123 121 116 108 101 93 86 81 72 68 67 63 63 52 55 70 68 63 60 58 57 56 54 47 40 43 45 49 65
160 155 150 147 150 150 148 143 138 135 136 134 129 127 127 124 119 116 111 105 93 84 80 74 72 67 61 50 43 50 71 67 66 64 64 70 64 66 64 60 54 46 49
163 160 157 153 153 152 148 146 142 139 138 136 135 136 137 131 128 126 117 108 101 94 87 82 80 77 66 56 56 53 73 73 68 65 61 61 63 58 71 79 80 65 52
166 162 158 153 152 147 146 143 143 142 142 140 138 137 140 132 126 121 113 104 97 95 90 85 84 84 72 54 56 69 83 77 71 65 66 69 63 52 50 72 72 69 60
162 158 155 149 146 145 144 143 145 146 147 145 144 143 142 136 134 127 118 112 107 102 96 90 87 86 78 49 34 36 95 87 78 69 61 61 70 41 28 74 79 77 78
151 148 145 141 141 144 145 147 149 150 147 145 144 140 140 139 135 128 124 119 114 109 104 93 88 86 82 54 26 356 98 97 96 90 84 67 56 41 26 66 78 79 75
143 143 141 138 138 143 148 149 149 147 143 141 139 138 137 134 128 123 122 124 121 113 104 99 92 85 78 79 45 16 66 95 97 92 86 75 55 51 41 46 67 62 57
147 144 138 134 137 145 150 148 146 139 137 138 138 136 133 130 127 126 126 126 124 121 117 112 107 101 93 75 72 56 46 34 90 87 87 87 77 68 57 59 46 360 335
144 144 141 137 139 147 151 148 144 143 142 141 138 134 130 125 130 135 135 138 141 138 136 134 125 114 110 102 90 83 69 49 75 82 77 84 104 120 99 74 18 339 52
143 145 144 141 141 146 147 141 141 146 144 141 138 136 135 132 129 135 138 141 145 145 145 139 132 127 127 127 130 128 123 124 120 117 119 126 99 91 89 114 93 59 46
143 144 142 141 141 140 138 140 144 147 144 143 143 144 142 136 131 120 85 105 91 70 133 138 142 144 135 100 62 87 114 114 109 137 146 139 129 117 104 94 76 68 72
144 139 138 138 139 138 136 141 147 149 148 149 153 152 144 139 139 130 103 51 56 62 54 46 59 92 94 112 99 83 77 78 119 205 133 120 108 95 88 87 86 74 56